IRNSS-1B

Last updated on Thu Nov 21 2024 00:02:42 GMT+0000 (Coordinated Universal Time)

1 39635U 14017A 24324.87739656 .00000101 00000+0 00000+0 0 9995 2 39635 29.1182 250.1943 0018573 185.7638 354.3476 1.00269125 39030
UTC large
Height (km)
Speed (km/s)
/
Latitude / Longitude
Inclination (degrees)
Orbital Period (minutes)
Azimuth
Elevation
Range (km)
Doppler Factor

Next 0 passes for location: London (51.5072 / 0.1276)

Sorry there are no passes over London.